• In Germany
  • List of Countries
  • For 7 days
  • Water Temperature
  • Satellite Maps
  • Weather Map
  • Weather Widgets
  • user-avatar
    Login

    Hourly Weather Melbourne

    Today, 25 April, Tuesday

    Time Temperature Precipitation Wind Pressure Humidity
    00:00 +17°C° 0.9 mm 2 mps 757 mmHg 94%
    01:00 +17°C° 0.9 mm 2 mps 756 mmHg 94%
    02:00 +17°C° 1.6 mm 2 mps 756 mmHg 95%
    03:00 +17°C° 1.6 mm 3 mps 755 mmHg 96%
    04:00 +17°C° 0 mm 2 mps 754 mmHg 98%
    05:00 +17°C° 1.4 mm 2 mps 754 mmHg 97%
    06:00 +17°C° 1.4 mm 3 mps 754 mmHg 97%
    07:00 +17°C° 1.4 mm 3 mps 754 mmHg 96%
    08:00 +17°C° 0.1 mm 3 mps 754 mmHg 94%
    09:00 +18°C° 0.1 mm 3 mps 754 mmHg 91%
    10:00 +18°C° 0 mm 3 mps 754 mmHg 89%
    11:00 +18°C° 0.4 mm 3 mps 754 mmHg 87%
    12:00 +18°C° 0.4 mm 3 mps 754 mmHg 85%
    13:00 +18°C° 0.4 mm 2 mps 754 mmHg 83%
    14:00 +18°C° 0.2 mm 2 mps 753 mmHg 82%
    15:00 +18°C° 0.2 mm 2 mps 753 mmHg 82%
    16:00 +17°C° 0 mm 2 mps 753 mmHg 82%
    17:00 +16°C° 0.1 mm 2 mps 753 mmHg 86%
    18:00 +15°C° 0.1 mm 2 mps 753 mmHg 89%
    19:00 +14°C° 0.1 mm 2 mps 753 mmHg 93%
    20:00 +14°C° 0.5 mm 2 mps 753 mmHg 93%
    21:00 +13°C° 0.5 mm 3 mps 753 mmHg 93%
    22:00 +13°C° 0.5 mm 3 mps 753 mmHg 93%
    23:00 +13°C° 0.1 mm 3 mps 753 mmHg 93%

    Tomorrow, 26 April, Wednesday

    Time Temperature Precipitation Wind Pressure Humidity
    00:00 +12°C° 0.1 mm 3 mps 752 mmHg 93%
    01:00 +12°C° 0.1 mm 3 mps 752 mmHg 93%
    02:00 +12°C° 0.9 mm 4 mps 752 mmHg 94%
    03:00 +12°C° 0.9 mm 4 mps 752 mmHg 95%
    04:00 +11°C° 0.9 mm 4 mps 752 mmHg 95%
    05:00 +10°C° 2 mm 5 mps 753 mmHg 94%
    06:00 +9°C° 2 mm 5 mps 754 mmHg 93%
    07:00 +9°C° 2 mm 5 mps 755 mmHg 92%
    08:00 +9°C° 0.4 mm 5 mps 756 mmHg 90%
    09:00 +9°C° 0.4 mm 5 mps 757 mmHg 87%
    10:00 +9°C° 0.4 mm 5 mps 758 mmHg 84%
    11:00 +9°C° 0.3 mm 5 mps 758 mmHg 80%
    12:00 +9°C° 0.3 mm 5 mps 758 mmHg 76%
    13:00 +10°C° 0.3 mm 5 mps 759 mmHg 71%
    14:00 +10°C° 0.2 mm 5 mps 759 mmHg 71%
    15:00 +9°C° 0.2 mm 5 mps 759 mmHg 71%
    16:00 +9°C° 0.2 mm 5 mps 760 mmHg 71%
    17:00 +8°C° 0.2 mm 5 mps 760 mmHg 74%
    18:00 +8°C° 0.2 mm 4 mps 761 mmHg 77%
    19:00 +7°C° 0.2 mm 4 mps 762 mmHg 80%
    20:00 +7°C° 0.2 mm 4 mps 762 mmHg 81%
    21:00 +7°C° 0.2 mm 4 mps 763 mmHg 81%
    22:00 +7°C° 0.2 mm 4 mps 763 mmHg 81%
    23:00 +7°C° 0.1 mm 4 mps 763 mmHg 82%

    Day after tomorrow, 27 April, Thursday

    Time Temperature Precipitation Wind Pressure Humidity
    00:00 +7°C° 0.1 mm 4 mps 763 mmHg 83%
    01:00 +8°C° 0.1 mm 3 mps 763 mmHg 83%
    02:00 +7°C° 0.1 mm 4 mps 763 mmHg 83%
    03:00 +8°C° 0.1 mm 4 mps 764 mmHg 83%
    04:00 +8°C° 0.1 mm 4 mps 764 mmHg 83%
    05:00 +8°C° 0.1 mm 4 mps 764 mmHg 82%
    06:00 +8°C° 0.1 mm 4 mps 765 mmHg 82%
    07:00 +9°C° 0.1 mm 3 mps 765 mmHg 82%
    08:00 +10°C° 0 mm 3 mps 765 mmHg 81%
    09:00 +10°C° 0 mm 3 mps 766 mmHg 80%
    10:00 +11°C° 0 mm 3 mps 766 mmHg 78%
    11:00 +11°C° 0.1 mm 3 mps 766 mmHg 78%
    12:00 +11°C° 0.1 mm 4 mps 766 mmHg 78%
    13:00 +11°C° 0.1 mm 4 mps 766 mmHg 77%
    14:00 +11°C° 0.1 mm 3 mps 766 mmHg 76%
    15:00 +12°C° 0.1 mm 3 mps 766 mmHg 75%
    16:00 +12°C° 0.1 mm 3 mps 766 mmHg 74%
    17:00 +11°C° 0 mm 3 mps 766 mmHg 78%
    18:00 +10°C° 0 mm 2 mps 767 mmHg 82%
    19:00 +10°C° 0 mm 2 mps 767 mmHg 85%
    20:00 +10°C° 0 mm 2 mps 767 mmHg 87%
    21:00 +10°C° 0 mm 2 mps 767 mmHg 89%
    22:00 +10°C° 0 mm 2 mps 767 mmHg 91%
    23:00 +9°C° 0 mm 2 mps 767 mmHg 92%

    28 April, Friday

    Time Temperature Precipitation Wind Pressure Humidity
    00:00 +9°C° 0 mm 2 mps 767 mmHg 94%
    01:00 +9°C° 0 mm 2 mps 767 mmHg 95%
    02:00 +9°C° 0 mm 2 mps 767 mmHg 96%
    03:00 +9°C° 0 mm 2 mps 766 mmHg 96%
    04:00 +9°C° 0 mm 2 mps 766 mmHg 96%
    05:00 +9°C° 0 mm 2 mps 766 mmHg 96%
    06:00 +9°C° 0 mm 2 mps 767 mmHg 96%
    07:00 +9°C° 0 mm 2 mps 767 mmHg 96%
    08:00 +12°C° 0 mm 2 mps 767 mmHg 91%
    09:00 +14°C° 0 mm 2 mps 767 mmHg 87%
    10:00 +15°C° 0 mm 2 mps 767 mmHg 83%
    11:00 +16°C° 0.1 mm 3 mps 767 mmHg 81%
    12:00 +16°C° 0.1 mm 3 mps 767 mmHg 80%
    13:00 +17°C° 0.1 mm 3 mps 766 mmHg 78%
    14:00 +17°C° 0.1 mm 3 mps 766 mmHg 77%
    15:00 +17°C° 0.1 mm 2 mps 766 mmHg 77%
    16:00 +17°C° 0.1 mm 2 mps 765 mmHg 76%
    17:00 +16°C° 0.2 mm 2 mps 765 mmHg 81%
    18:00 +15°C° 0.2 mm 2 mps 766 mmHg 86%
    19:00 +13°C° 0.2 mm 3 mps 766 mmHg 91%
    20:00 +13°C° 0 mm 3 mps 766 mmHg 93%
    21:00 +13°C° 0 mm 3 mps 766 mmHg 94%
    22:00 +12°C° 0 mm 3 mps 766 mmHg 96%
    23:00 +12°C° 0 mm 3 mps 765 mmHg 96%

    29 April, Saturday

    Time Temperature Precipitation Wind Pressure Humidity
    00:00 +12°C° 0 mm 3 mps 765 mmHg 95%
    01:00 +12°C° 0 mm 3 mps 765 mmHg 95%
    02:00 +12°C° 0.1 mm 3 mps 764 mmHg 95%
    03:00 +13°C° 0.1 mm 3 mps 764 mmHg 94%
    04:00 +13°C° 0.1 mm 3 mps 764 mmHg 94%
    05:00 +13°C° 0.1 mm 3 mps 764 mmHg 94%
    06:00 +13°C° 0.1 mm 3 mps 764 mmHg 94%
    07:00 +13°C° 0.1 mm 3 mps 765 mmHg 94%
    08:00 +14°C° 0.3 mm 3 mps 765 mmHg 93%
    09:00 +14°C° 0.3 mm 4 mps 765 mmHg 91%
    10:00 +14°C° 0.3 mm 4 mps 766 mmHg 89%
    11:00 +15°C° 0 mm 4 mps 766 mmHg 85%
    12:00 +15°C° 0 mm 4 mps 766 mmHg 80%
    13:00 +16°C° 0 mm 3 mps 766 mmHg 76%
    14:00 +16°C° 0 mm 3 mps 766 mmHg 74%
    15:00 +16°C° 0 mm 3 mps 766 mmHg 72%
    16:00 +16°C° 0 mm 3 mps 766 mmHg 70%
    17:00 +14°C° 0 mm 2 mps 766 mmHg 76%
    18:00 +13°C° 0 mm 2 mps 767 mmHg 82%
    19:00 +12°C° 0 mm 2 mps 767 mmHg 88%
    20:00 +12°C° 0 mm 2 mps 767 mmHg 89%
    21:00 +11°C° 0 mm 1 mps 767 mmHg 90%
    22:00 +11°C° 0 mm 1 mps 768 mmHg 91%
    23:00 +11°C° 0 mm 1 mps 767 mmHg 92%

    30 April, Sunday

    Time Temperature Precipitation Wind Pressure Humidity
    00:00 +10°C° 0 mm 1 mps 767 mmHg 93%
    01:00 +9°C° 0 mm 1 mps 767 mmHg 94%
    02:00 +9°C° 0 mm 1 mps 767 mmHg 94%
    03:00 +7°C° 0 mm 0 mps 767 mmHg 95%
    04:00 +7°C° 0 mm 0 mps 766 mmHg 95%
    05:00 +6°C° 0 mm 0 mps 766 mmHg 95%
    06:00 +6°C° 0 mm 0 mps 767 mmHg 96%
    07:00 +6°C° 0 mm 0 mps 767 mmHg 96%
    08:00 +8°C° 0 mm 0 mps 767 mmHg 87%
    09:00 +12°C° 0 mm 1 mps 766 mmHg 78%
    10:00 +15°C° 0 mm 1 mps 766 mmHg 68%
    11:00 +16°C° 0 mm 1 mps 766 mmHg 62%
    12:00 +18°C° 0 mm 1 mps 765 mmHg 57%
    13:00 +18°C° 0 mm 2 mps 764 mmHg 51%
    14:00 +18°C° 0 mm 2 mps 764 mmHg 52%
    15:00 +18°C° 0 mm 2 mps 763 mmHg 54%
    16:00 +19°C° 0 mm 1 mps 763 mmHg 55%
    17:00 +17°C° 0 mm 2 mps 763 mmHg 63%
    18:00 +15°C° 0 mm 2 mps 763 mmHg 70%
    19:00 +13°C° 0 mm 2 mps 763 mmHg 78%
    20:00 +12°C° 0 mm 2 mps 763 mmHg 80%
    21:00 +12°C° 0 mm 2 mps 763 mmHg 81%
    22:00 +10°C° 0 mm 2 mps 763 mmHg 83%
    23:00 +10°C° 0 mm 2 mps 762 mmHg 83%
    Show more